User: anonymous   Login
Location: Colebrook
(42.0017°N, 73.0973°W)
Time: 02:15:37
(UTC-05:00)
Language:

CAS-4B - Orbit

View from above orbital plane
View from above orbital plane
View from above satellite
View from above satellite

Ground track
Ground track

The orbit data is extracted from the following two-line orbital elements,

1 42759U 17034B   21336.93110272  .00001491  00000-0  10189-3 0  9999
2 42759  43.0188 334.6335 0006891 143.4269 300.1270 15.10586181246622
Epoch (UTC): 02 December 2021 22:20:47
Eccentricity: 0.0006891
inclination: 43.0188°
perigee height: 529 km
apogee height: 539 km
right ascension of ascending node: 334.6335°
argument of perigee: 143.4269°
revolutions per day: 15.10586181
mean anomaly at epoch: 300.1270°
orbit number at epoch: 24662

The dashed part of the orbit path shows where the satellite is in the earth's shadow,  

DLR